Canadian, TX

12:13 PM CST on December 05, 2019 (GMT -0600)
Hemphill County

Weather History for KHHF - October, 2019

Change the Weather History Date:

Friday, October 25, 2019

  Actual Average (KPPA) Record (KPPA)
Temperature  
Mean Temperature 38 °F -  
Max Temperature 46 °F 67 °F 86 °F (2011)
Min Temperature 30 °F 41 °F 24 °F (1975)
Degree Days  
Heating Degree Days 27    
Moisture  
Dew Point 30 °F    
Average Humidity 79    
Maximum Humidity 94    
Minimum Humidity 56    
Precipitation  
Precipitation 0.00 in - - ()
Sea Level Pressure  
Sea Level Pressure 30.30 in    
Wind  
Wind Speed 4 mph ()    
Max Wind Speed 9 mph    
Max Gust Speed -    
Visibility 10.0 miles    
Events      
Averages and records for this station are not official NWS values.
T = Trace of Precipitation, MM = Missing Value Source: Averaged Metar Reports

Daily Weather History Graph

Daily Weather History Graph

Search for Another Location

Airport or City:

Astronomy

Oct. 25, 2019 Rise Set
Actual Time 7:57 AM CDT 6:53 PM CDT
Civil Twilight 7:30 AM CDT 7:19 PM CDT
Nautical Twilight 7:01 AM CDT 7:49 PM CDT
Astronomical Twilight 6:31 AM CDT 8:19 PM CDT
Moon 4:50 AM CDT (10/25) 5:49 PM CDT (10/25)
Length of Visible Light 11h 48m
Length of Day
10h 56m
Waning Crescent, 9% of the Moon is Illuminated
Oct 25
Waning Crescent
Oct 27
New
Nov 4
First Quarter
Nov 12
Full
Nov 19
Last Quarter

Hourly Weather History & Observations

Time (CDT) Temp. Windchill Dew Point Humidity Pressure Visibility Wind Dir Wind Speed Gust Speed Precip Events Conditions
12:15 AM 34.7 °F - 32.5 °F 92% 30.37 in 10.0 mi Calm Calm - N/A   Overcast
12:35 AM 35.6 °F - 32.0 °F 87% 30.37 in 10.0 mi Calm Calm - N/A   Overcast
12:55 AM 35.2 °F 32.4 °F 32.0 °F 88% 30.36 in 10.0 mi NNW 3.5 mph - N/A   Overcast
1:15 AM 35.1 °F - 32.0 °F 89% 30.36 in 10.0 mi Calm Calm - N/A   Overcast
1:35 AM 34.7 °F - 32.0 °F 90% 30.36 in 10.0 mi Calm Calm - N/A   Overcast
1:55 AM 35.6 °F 32.8 °F 31.6 °F 85% 30.36 in 10.0 mi NNW 3.5 mph - N/A   Overcast
2:15 AM 35.6 °F 32.8 °F 31.1 °F 84% 30.36 in 10.0 mi NNW 3.5 mph - N/A   Overcast
2:35 AM 35.6 °F 30.7 °F 31.1 °F 84% 30.35 in 10.0 mi NNW 5.8 mph - N/A   Overcast
2:55 AM 35.6 °F 29.9 °F 30.9 °F 83% 30.35 in 10.0 mi NNW 6.9 mph - N/A   Overcast
3:15 AM 34.9 °F 32.0 °F 30.4 °F 84% 30.35 in 10.0 mi North 3.5 mph - N/A   Overcast
3:35 AM 34.7 °F 31.8 °F 30.2 °F 84% 30.35 in 10.0 mi North 3.5 mph - N/A   Overcast
3:55 AM 34.7 °F 31.8 °F 30.6 °F 85% 30.34 in 10.0 mi NNW 3.5 mph - N/A   Overcast
4:15 AM 34.2 °F 31.2 °F 30.0 °F 85% 30.34 in 10.0 mi North 3.5 mph - N/A   Overcast
4:35 AM 34.0 °F 31.0 °F 30.2 °F 86% 30.34 in 10.0 mi North 3.5 mph - N/A   Overcast
4:55 AM 34.7 °F 28.8 °F 29.8 °F 82% 30.35 in 10.0 mi North 6.9 mph - N/A   Overcast
5:15 AM 34.7 °F 28.1 °F 29.7 °F 82% 30.35 in 10.0 mi North 8.1 mph - N/A   Overcast
5:35 AM 33.4 °F 27.3 °F 28.4 °F 82% 30.36 in 10.0 mi North 6.9 mph - N/A   Overcast
5:55 AM 33.1 °F 26.9 °F 28.4 °F 83% 30.36 in 10.0 mi North 6.9 mph - N/A   Overcast
6:15 AM 32.9 °F 27.5 °F 28.4 °F 84% 30.37 in 10.0 mi North 5.8 mph - N/A   Overcast
6:35 AM 32.9 °F 26.7 °F 28.2 °F 83% 30.37 in 10.0 mi North 6.9 mph - N/A   Overcast
6:55 AM 32.5 °F 26.2 °F 28.0 °F 83% 30.37 in 10.0 mi North 6.9 mph - N/A   Overcast
7:15 AM 32.2 °F 26.7 °F 27.5 °F 83% 30.37 in 10.0 mi North 5.8 mph - N/A   Overcast
7:35 AM 32.2 °F 25.0 °F 27.5 °F 83% 30.36 in 10.0 mi North 8.1 mph - N/A   Overcast
7:55 AM 32.2 °F 25.8 °F 27.7 °F 83% 30.36 in 10.0 mi North 6.9 mph - N/A   Overcast
8:15 AM 32.2 °F 27.7 °F 27.9 °F 84% 30.37 in 10.0 mi North 4.6 mph - N/A   Overcast
8:35 AM 32.5 °F 29.3 °F 28.2 °F 84% 30.38 in 10.0 mi NNE 3.5 mph - N/A   Overcast
8:55 AM 32.9 °F 28.5 °F 28.4 °F 84% 30.38 in 10.0 mi North 4.6 mph - N/A   Overcast
9:15 AM 32.9 °F 29.8 °F 28.2 °F 83% 30.37 in 10.0 mi North 3.5 mph - N/A   Overcast
9:35 AM 32.9 °F 28.5 °F 28.0 °F 82% 30.37 in 10.0 mi NNW 4.6 mph - N/A   Overcast
9:55 AM 32.7 °F 29.6 °F 28.2 °F 83% 30.37 in 10.0 mi North 3.5 mph - N/A   Overcast
10:15 AM 32.4 °F 27.9 °F 27.5 °F 82% 30.37 in 10.0 mi North 4.6 mph - N/A   Scattered Clouds
10:35 AM 32.0 °F 26.4 °F 27.3 °F 83% 30.37 in 10.0 mi North 5.8 mph - N/A   Scattered Clouds
10:55 AM 32.4 °F 27.9 °F 26.8 °F 80% 30.36 in 10.0 mi North 4.6 mph - N/A   Scattered Clouds
11:15 AM 33.3 °F 27.9 °F 27.7 °F 80% 30.36 in 10.0 mi North 5.8 mph - N/A   Clear
11:35 AM 35.1 °F 28.6 °F 28.4 °F 77% 30.36 in 10.0 mi North 8.1 mph - N/A   Clear
11:55 AM 36.7 °F 32.0 °F 29.5 °F 75% 30.37 in 10.0 mi North 5.8 mph - N/A   Clear
12:15 PM 37.8 °F 33.3 °F 30.0 °F 74% 30.37 in 10.0 mi NW 5.8 mph - N/A   Clear
12:35 PM 38.3 °F 34.8 °F 30.9 °F 75% 30.36 in 10.0 mi NNW 4.6 mph - N/A   Clear
12:55 PM 39.2 °F 34.2 °F 31.1 °F 73% 30.35 in 10.0 mi NW 6.9 mph - N/A   Clear
1:15 PM 39.9 °F 36.7 °F 31.5 °F 72% 30.34 in 10.0 mi NW 4.6 mph - N/A   Clear
1:35 PM 40.8 °F 36.9 °F 32.0 °F 71% 30.33 in 10.0 mi NW 5.8 mph - N/A   Clear
1:55 PM 41.4 °F 35.7 °F 32.0 °F 69% 30.32 in 10.0 mi NW 9.2 mph - N/A   Clear
2:15 PM 42.3 °F 37.3 °F 32.0 °F 67% 30.30 in 10.0 mi NW 8.1 mph - N/A   Clear
2:35 PM 43.2 °F 38.4 °F 32.0 °F 65% 30.29 in 10.0 mi NNW 8.1 mph - N/A   Clear
3:15 PM 45.0 °F - 30.0 °F 56% 30.27 in 10.0 mi Calm Calm - N/A   Clear
3:35 PM 45.5 °F 43.2 °F 31.1 °F 57% 30.26 in 10.0 mi WNW 4.6 mph - N/A   Clear
3:55 PM 45.7 °F 42.0 °F 31.3 °F 57% 30.25 in 10.0 mi NNW 6.9 mph - N/A   Clear
4:20 PM 45.5 °F 41.3 °F 31.6 °F 58% 30.24 in 10.0 mi WNW 8.1 mph - N/A   Clear
4:35 PM 45.7 °F 42.0 °F 31.5 °F 58% 30.23 in 10.0 mi West 6.9 mph - N/A   Clear
5:15 PM 46.0 °F 43.9 °F 32.2 °F 58% 30.21 in 10.0 mi West 4.6 mph - N/A   Clear
5:35 PM 46.0 °F 43.1 °F 32.2 °F 58% 30.21 in 10.0 mi WSW 5.8 mph - N/A   Clear
5:55 PM 45.5 °F 44.2 °F 32.4 °F 60% 30.21 in 10.0 mi West 3.5 mph - N/A   Clear
6:15 PM 45.1 °F 42.0 °F 31.8 °F 60% 30.20 in 10.0 mi West 5.8 mph - N/A   Clear
6:35 PM 42.6 °F 40.9 °F 32.9 °F 68% 30.19 in 10.0 mi SW 3.5 mph - N/A   Clear
6:55 PM 41.0 °F 39.0 °F 32.0 °F 70% 30.18 in 10.0 mi WSW 3.5 mph - N/A   Clear
7:15 PM 39.4 °F 36.1 °F 32.0 °F 75% 30.19 in 10.0 mi South 4.6 mph - N/A   Clear
7:35 PM 37.9 °F 34.4 °F 31.5 °F 77% 30.19 in 10.0 mi SW 4.6 mph - N/A   Clear
7:55 PM 37.4 °F 33.8 °F 31.1 °F 78% 30.19 in 10.0 mi SSW 4.6 mph - N/A   Clear
8:15 PM 36.0 °F 33.3 °F 30.7 °F 81% 30.18 in 10.0 mi SSW 3.5 mph - N/A   Clear
8:35 PM 34.7 °F - 30.4 °F 84% 30.18 in 10.0 mi Calm Calm - N/A   Clear
8:55 PM 34.7 °F 31.8 °F 30.6 °F 85% 30.18 in 10.0 mi SW 3.5 mph - N/A   Clear
9:15 PM 33.3 °F - 29.8 °F 87% 30.18 in 10.0 mi Calm Calm - N/A   Clear
9:35 PM 32.2 °F - 29.7 °F 90% 30.18 in 10.0 mi Calm Calm - N/A   Clear
9:55 PM 32.5 °F - 30.2 °F 91% 30.18 in 10.0 mi Calm Calm - N/A   Clear
10:15 PM 32.4 °F - 29.8 °F 90% 30.17 in 10.0 mi Calm Calm - N/A   Clear
10:55 PM 30.2 °F 26.7 °F 28.6 °F 94% 30.15 in 10.0 mi SW 3.5 mph - N/A   Clear
11:15 PM 31.1 °F - 28.8 °F 91% 30.16 in 10.0 mi Calm Calm - N/A   Clear
11:35 PM 30.7 °F - 28.8 °F 92% 30.15 in 10.0 mi Calm Calm - N/A   Clear
11:55 PM 30.2 °F - 28.6 °F 94% 30.14 in 10.0 mi Calm Calm - N/A   Clear